This is the latest recevied weather packets stored in our database for station/object N6GPM. If no packets are shown the sender has not sent any weather packets the latest 10 day(s).
| Time | Temp. | Humidity | Pressure | Rain* | Wind** | Luminosity | Snow |
|---|---|---|---|---|---|---|---|
| 1777953408 | 12.78° C | 76% | 1017.9 hPa | 0 mm | - | 0 W/m² | - |
| 1777953105 | 12.78° C | 76% | 1018 hPa | 0 mm | - | 0 W/m² | - |
| 1777952801 | 12.78° C | 76% | 1017.6 hPa | 0 mm | - | 0 W/m² | - |
| 1777952499 | 12.78° C | 76% | 1017.7 hPa | 0 mm | - | 0 W/m² | - |
| 1777952195 | 13.33° C | 76% | 1017.8 hPa | 0 mm | - | 0 W/m² | - |
| 1777951894 | 13.33° C | 76% | 1017.7 hPa | 0 mm | - | 0 W/m² | - |
| 1777951591 | 13.33° C | 75% | 1017.7 hPa | 0 mm | - | 0 W/m² | - |
| 1777951287 | 13.33° C | 74% | 1017.6 hPa | 0 mm | - | 0 W/m² | - |
| 1777950984 | 13.33° C | 73% | 1017.6 hPa | 0 mm | - | 0 W/m² | - |
| 1777950680 | 13.89° C | 73% | 1017.5 hPa | 0 mm | - | 0 W/m² | - |
| 1777950378 | 13.89° C | 72% | 1017.6 hPa | 0 mm | - | 0 W/m² | - |
| 1777950074 | 13.89° C | 71% | 1017.4 hPa | 0 mm | - | 0 W/m² | - |
| 1777949769 | 13.89° C | 71% | 1017.5 hPa | 0 mm | - | 0 W/m² | - |
| 1777949469 | 13.89° C | 70% | 1017.5 hPa | 0 mm | - | 0 W/m² | - |
| 1777949165 | 13.89° C | 70% | 1017.3 hPa | 0 mm | - | 0 W/m² | - |
| 1777948863 | 13.89° C | 69% | 1017.3 hPa | 0 mm | - | 0 W/m² | - |
| 1777948560 | 13.89° C | 69% | 1017.5 hPa | 0 mm | - | 0 W/m² | - |
| 1777948257 | 14.44° C | 68% | 1017.4 hPa | 0 mm | - | 2 W/m² | - |
| 1777947954 | 14.44° C | 68% | 1017.4 hPa | 0 mm | - | 4 W/m² | - |
| 1777947651 | 14.44° C | 68% | 1017.6 hPa | 0 mm | - | 6 W/m² | - |
| 1777947348 | 14.44° C | 67% | 1017.6 hPa | 0 mm | - | 10 W/m² | - |
| 1777947045 | 14.44° C | 67% | 1017.5 hPa | 0 mm | - | 13 W/m² | - |
| 1777946744 | 14.44° C | 67% | 1017.3 hPa | 0 mm | - | 18 W/m² | - |
| 1777946442 | 15° C | 66% | 1017.4 hPa | 0 mm | - | 26 W/m² | - |
| 1777946139 | 15° C | 65% | 1017.5 hPa | 0 mm | - | 32 W/m² | - |
* Rain latest hour (hover to see other rain measurements)
** Current wind speed in m/s (hover to see current wind gust speed)